,,PA_Meas_PMT16A,,PR_Meas_QMR101_102,,RH_Meas_QMH101,,SR_Meas_QMS101,,TA_Meas_QMH101,,GenWind,,GenWind,
time,status,PA,status,PR,status,RH,status,SR,status,TA,status,DirAvg,status,SpdAvg,
2014-09-26, 06:53:04,VALID,918.9,VALID,0,VALID,97.7017,VALID,47.5964,VALID,18.6319,VALID,173,VALID,0,
2014-09-26, 06:54:04,VALID,918.931,VALID,0,VALID,97.7169,VALID,48.7783,VALID,18.6319,VALID,168,VALID,0,
2014-09-26, 06:55:04,VALID,918.927,VALID,0,VALID,97.7093,VALID,43.7285,VALID,18.6319,VALID,172,VALID,0,
2014-09-26, 06:56:04,VALID,918.959,VALID,0,VALID,97.7246,VALID,42.869,VALID,18.6513,VALID,172,VALID,0,
2014-09-26, 06:57:04,VALID,918.965,VALID,0,VALID,97.7246,VALID,47.1667,VALID,18.6528,VALID,174,VALID,0,
2014-09-26, 06:58:04,VALID,918.956,VALID,0,VALID,97.7322,VALID,48.9932,VALID,18.6124,VALID,164,VALID,0,
2014-09-26, 06:59:04,VALID,918.958,VALID,0,VALID,97.7246,VALID,49.6378,VALID,18.6319,VALID,164,VALID,0,
2014-09-26, 07:00:04,VALID,918.994,VALID,0,VALID,97.7398,VALID,50.175,VALID,18.6513,VALID,151,VALID,0,
2014-09-26, 07:01:04,VALID,918.982,VALID,0,VALID,97.7246,VALID,51.6792,VALID,18.6708,VALID,151,VALID,0,
2014-09-26, 07:02:04,VALID,919.008,VALID,0,VALID,97.7246,VALID,52.109,VALID,18.7098,VALID,183,VALID,0,
2014-09-26, 07:03:04,VALID,918.978,VALID,0,VALID,97.7322,VALID,54.0429,VALID,18.6903,VALID,171,VALID,0,
2014-09-26, 07:04:04,VALID,919.007,VALID,0,VALID,97.7398,VALID,55.762,VALID,18.6708,VALID,185,VALID,0,
2014-09-26, 07:05:04,VALID,919.048,VALID,0,VALID,97.7398,VALID,57.481,VALID,18.6903,VALID,181,VALID,0,
2014-09-26, 07:06:04,VALID,919.043,VALID,0,VALID,97.7474,VALID,64.1424,VALID,18.6708,VALID,178,VALID,0,
2014-09-26, 07:07:04,VALID,919.074,VALID,0,VALID,97.7322,VALID,66.0763,VALID,18.6708,VALID,185,VALID,0,
2014-09-26, 07:08:04,VALID,919.064,VALID,0,VALID,97.7246,VALID,67.7954,VALID,18.7098,VALID,158,VALID,0,
2014-09-26, 07:09:04,VALID,919.069,VALID,0,VALID,97.7246,VALID,64.787,VALID,18.6903,VALID,184,VALID,0,
2014-09-26, 07:10:04,VALID,919.063,VALID,0,VALID,97.7322,VALID,64.1424,VALID,18.7293,VALID,178,VALID,0,
2014-09-26, 07:11:04,VALID,919.044,VALID,0,VALID,97.7093,VALID,71.4484,VALID,18.6903,VALID,179,VALID,0,
2014-09-26, 07:12:04,VALID,919.057,VALID,0,VALID,97.7398,VALID,70.1591,VALID,18.6903,VALID,184,VALID,0,
2014-09-26, 07:13:04,VALID,919.117,VALID,0,VALID,97.7246,VALID,69.1921,VALID,18.7293,VALID,184,VALID,0,
2014-09-26, 07:14:04,VALID,919.079,VALID,0,VALID,97.7322,VALID,69.1921,VALID,18.7098,VALID,165,VALID,0,
2014-09-26, 07:15:04,VALID,919.087,VALID,0,VALID,97.7169,VALID,70.5888,VALID,18.7293,VALID,170,VALID,0,
2014-09-26, 07:16:04,VALID,919.095,VALID,0,VALID,97.7169,VALID,78.5395,VALID,18.7084,VALID,174,VALID,0,
2014-09-26, 07:17:04,VALID,919.087,VALID,0,VALID,97.7246,VALID,76.2832,VALID,18.7279,VALID,174,VALID,0,
2014-09-26, 07:18:04,VALID,919.065,VALID,0,VALID,97.7246,VALID,76.6055,VALID,18.7878,VALID,152,VALID,0,
2014-09-26, 07:19:04,VALID,919.105,VALID,0,VALID,97.7017,VALID,73.8121,VALID,18.7474,VALID,184,VALID,0,
2014-09-26, 07:20:04,VALID,919.137,VALID,0,VALID,97.7169,VALID,77.2502,VALID,18.7878,VALID,159,VALID,0,
2014-09-26, 07:21:04,VALID,919.141,VALID,0,VALID,97.7246,VALID,76.9279,VALID,18.7683,VALID,157,VALID,0,
2014-09-26, 07:22:04,VALID,919.141,VALID,0,VALID,97.7398,VALID,81.333,VALID,18.7488,VALID,151,VALID,0,
2014-09-26, 07:23:04,VALID,919.14,VALID,0,VALID,97.7093,VALID,85.3083,VALID,18.7474,VALID,151,VALID,0,
2014-09-26, 07:24:04,VALID,919.157,VALID,0,VALID,97.7246,VALID,89.2836,VALID,18.8073,VALID,148,VALID,0,
2014-09-26, 07:25:04,VALID,919.161,VALID,0,VALID,97.7169,VALID,86.3827,VALID,18.8463,VALID,148,VALID,0,
2014-09-26, 07:26:04,VALID,919.162,VALID,0,VALID,97.7093,VALID,101.854,VALID,18.8644,VALID,158,VALID,0,
2014-09-26, 07:27:04,VALID,919.179,VALID,0,VALID,97.6941,VALID,104.003,VALID,18.9034,VALID,146,VALID,0,
2014-09-26, 07:28:04,VALID,919.19,VALID,0,VALID,97.6941,VALID,107.441,VALID,18.9034,VALID,146,VALID,0,
2014-09-26, 07:29:04,VALID,919.194,VALID,0,VALID,97.6712,VALID,102.069,VALID,18.9619,VALID,146,VALID,0,
2014-09-26, 07:30:04,VALID,919.168,VALID,0,VALID,97.7093,VALID,103.036,VALID,18.8658,VALID,130,VALID,0,
2014-09-26, 07:31:04,VALID,919.176,VALID,0,VALID,97.7246,VALID,104.863,VALID,18.8658,VALID,130,VALID,0,
2014-09-26, 07:32:04,VALID,919.181,VALID,0,VALID,97.7093,VALID,117.111,VALID,18.9243,VALID,134,VALID,0,
2014-09-26, 07:33:04,VALID,919.18,VALID,0,VALID,97.6941,VALID,116.359,VALID,18.9633,VALID,139,VALID,0,
2014-09-26, 07:34:04,VALID,919.186,VALID,0,VALID,97.6788,VALID,126.458,VALID,18.9828,VALID,131,VALID,0,
2014-09-26, 07:35:04,VALID,919.202,VALID,0,VALID,97.7017,VALID,137.31,VALID,19.0023,VALID,130,VALID,0,
2014-09-26, 07:36:04,VALID,919.195,VALID,0,VALID,97.6788,VALID,143.971,VALID,19.0413,VALID,151,VALID,0,
2014-09-26, 07:37:04,VALID,919.214,VALID,0,VALID,97.6788,VALID,124.632,VALID,19.0413,VALID,170,VALID,0,
2014-09-26, 07:38:04,VALID,919.196,VALID,0,VALID,97.7093,VALID,128.285,VALID,19.0413,VALID,170,VALID,0,
2014-09-26, 07:39:04,VALID,919.223,VALID,0,VALID,97.6941,VALID,121.301,VALID,19.0593,VALID,170,VALID,0,
2014-09-26, 07:40:04,VALID,919.197,VALID,0,VALID,97.6788,VALID,118.4,VALID,19.0593,VALID,170,VALID,0,
2014-09-26, 07:41:04,VALID,919.21,VALID,0,VALID,97.6636,VALID,130.756,VALID,19.1178,VALID,156,VALID,0,
2014-09-26, 07:42:04,VALID,919.186,VALID,0,VALID,97.6865,VALID,123.128,VALID,19.1388,VALID,150,VALID,0,
2014-09-26, 07:43:04,VALID,919.188,VALID,0,VALID,97.6712,VALID,137.74,VALID,19.1373,VALID,151,VALID,0,
2014-09-26, 07:44:04,VALID,919.204,VALID,0,VALID,97.6712,VALID,141.715,VALID,19.1178,VALID,172,VALID,0.830469,
2014-09-26, 07:45:04,VALID,919.213,VALID,0,VALID,97.656,VALID,158.261,VALID,19.0983,VALID,158,VALID,0.0195313,
2014-09-26, 07:46:04,VALID,919.247,VALID,0,VALID,97.656,VALID,162.881,VALID,19.1373,VALID,154,VALID,0,
2014-09-26, 07:47:04,VALID,919.268,VALID,0,VALID,97.6483,VALID,163.525,VALID,19.2348,VALID,157,VALID,0,
2014-09-26, 07:48:04,VALID,919.285,VALID,0,VALID,97.6483,VALID,167.178,VALID,19.2153,VALID,164,VALID,0,
2014-09-26, 07:49:04,VALID,919.289,VALID,0,VALID,97.6636,VALID,174.484,VALID,19.2558,VALID,154,VALID,0,
2014-09-26, 07:50:04,VALID,919.304,VALID,0,VALID,97.6483,VALID,181.468,VALID,19.2738,VALID,165,VALID,0,
2014-09-26, 07:51:04,VALID,919.294,VALID,0,VALID,97.656,VALID,190.063,VALID,19.2738,VALID,161,VALID,0,
2014-09-26, 07:52:04,VALID,919.313,VALID,0,VALID,97.6331,VALID,203.279,VALID,19.3128,VALID,167,VALID,0,
2014-09-26, 07:53:04,VALID,919.315,VALID,0,VALID,97.6255,VALID,216.709,VALID,19.3908,VALID,173,VALID,0.288672,
2014-09-26, 07:54:04,VALID,919.346,VALID,0,VALID,97.6102,VALID,230.461,VALID,19.4673,VALID,175,VALID,0.122656,
2014-09-26, 07:55:04,VALID,919.375,VALID,0,VALID,97.6255,VALID,239.486,VALID,19.4883,VALID,155,VALID,0.833984,
2014-09-26, 07:56:04,VALID,919.361,VALID,0,VALID,97.5873,VALID,245.825,VALID,19.6638,VALID,173,VALID,0,
2014-09-26, 07:57:04,VALID,919.396,VALID,0,VALID,97.5645,VALID,255.495,VALID,19.7808,VALID,166,VALID,0,
2014-09-26, 07:58:04,VALID,919.407,VALID,0,VALID,97.5645,VALID,264.198,VALID,19.8393,VALID,143,VALID,0.123438,
2014-09-26, 07:59:04,VALID,919.386,VALID,0,VALID,97.5111,VALID,271.396,VALID,19.9938,VALID,158,VALID,0,
2014-09-26, 08:00:04,VALID,919.404,VALID,0,VALID,97.4959,VALID,275.587,VALID,20.0718,VALID,158,VALID,0,
2014-09-26, 08:01:04,VALID,919.388,VALID,0,VALID,97.4273,VALID,282.463,VALID,20.1498,VALID,166,VALID,0,
2014-09-26, 08:02:04,VALID,919.405,VALID,0,VALID,97.3663,VALID,288.587,VALID,20.2489,VALID,141,VALID,0,
2014-09-26, 08:03:04,VALID,919.419,VALID,0,VALID,97.3053,VALID,296.323,VALID,20.3269,VALID,161,VALID,0,
2014-09-26, 08:04:04,VALID,919.394,VALID,0,VALID,97.1376,VALID,302.554,VALID,20.4454,VALID,134,VALID,0.0359375,
2014-09-26, 08:05:04,VALID,919.417,VALID,0,VALID,96.886,VALID,311.042,VALID,20.5219,INVALID,360,INVALID,0,
2014-09-26, 08:06:04,VALID,919.423,VALID,0,VALID,96.3295,VALID,320.067,VALID,20.6764,VALID,125,VALID,0,
2014-09-26, 08:07:04,VALID,919.42,VALID,0,VALID,93.9052,VALID,328.77,VALID,20.795,VALID,137,VALID,1.05977,
2014-09-26, 08:08:04,VALID,919.443,VALID,0,VALID,92.0909,VALID,333.282,VALID,21.0307,VALID,153,VALID,0,
2014-09-26, 08:09:04,VALID,919.454,VALID,0,VALID,88.8052,VALID,333.497,VALID,21.1657,VALID,155,VALID,0,
2014-09-26, 08:10:04,VALID,919.466,VALID,0,VALID,85.3823,VALID,338.655,VALID,21.2827,VALID,139,VALID,0.183203,
2014-09-26, 08:11:04,VALID,919.45,VALID,0,VALID,82.0584,VALID,346.283,VALID,21.3998,VALID,119,VALID,0.601172,
2014-09-26, 08:12:04,VALID,919.48,VALID,0,VALID,81.3723,VALID,356.812,VALID,21.5168,VALID,155,VALID,0.946094,
2014-09-26, 08:13:04,VALID,919.498,VALID,0,VALID,81.9365,VALID,357.349,VALID,21.6339,VALID,153,VALID,0,
2014-09-26, 08:14:04,VALID,919.526,VALID,0,VALID,83.0876,VALID,358.424,VALID,21.79,VALID,156,VALID,0,
2014-09-26, 08:15:04,VALID,919.549,VALID,0,VALID,80.9073,VALID,363.688,VALID,21.9266,VALID,164,VALID,0,
2014-09-26, 08:16:04,VALID,919.533,VALID,0,VALID,80.8997,VALID,368.308,VALID,22.0437,VALID,117,VALID,0,
2014-09-26, 08:17:04,VALID,919.581,VALID,0,VALID,80.0459,VALID,375.399,VALID,22.1005,VALID,108,VALID,0.769141,
2014-09-26, 08:18:04,VALID,919.582,VALID,0,VALID,79.5656,VALID,371.424,VALID,22.1591,VALID,89,VALID,0,
2014-09-26, 08:19:04,VALID,919.587,VALID,0,VALID,76.5315,VALID,366.912,VALID,22.2567,VALID,109,VALID,0,
2014-09-26, 08:20:04,VALID,919.593,VALID,0,VALID,76.6458,VALID,360.573,VALID,22.333,VALID,135,VALID,0.314063,
2014-09-26, 08:21:04,VALID,919.613,VALID,0,VALID,77.6445,VALID,356.06,VALID,22.4518,VALID,121,VALID,0.13125,
2014-09-26, 08:22:04,VALID,919.592,VALID,0,VALID,78.727,VALID,359.391,VALID,22.4713,VALID,150,VALID,0,
2014-09-26, 08:23:04,VALID,919.596,VALID,0,VALID,77.5378,VALID,357.457,VALID,22.5086,VALID,126,VALID,0.404297,
2014-09-26, 08:24:04,VALID,919.639,VALID,0,VALID,78.6584,VALID,359.606,VALID,22.6452,VALID,154,VALID,0,
2014-09-26, 08:25:04,VALID,919.648,VALID,0,VALID,76.7525,VALID,366.697,VALID,22.7836,VALID,78,VALID,0.291797,
2014-09-26, 08:26:04,VALID,919.689,VALID,0,VALID,74.2978,VALID,369.92,VALID,22.7836,VALID,125,VALID,1.24414,
2014-09-26, 08:27:04,VALID,919.635,VALID,0,VALID,72.3005,VALID,381.738,VALID,22.7055,VALID,172,VALID,0.522266,
2014-09-26, 08:28:04,VALID,919.645,VALID,0,VALID,75.548,VALID,395.921,VALID,22.8226,VALID,159,VALID,0.0359375,
2014-09-26, 08:29:04,VALID,919.667,VALID,0,VALID,72.8875,VALID,400.433,VALID,22.8794,VALID,166,VALID,0.221875,
2014-09-26, 08:30:04,VALID,919.675,VALID,0,VALID,71.622,VALID,404.301,VALID,22.9592,VALID,189,VALID,1.64102,
2014-09-26, 08:31:04,VALID,919.689,VALID,0,VALID,74.1149,VALID,404.301,VALID,23.0178,VALID,139,VALID,1.57148,
2014-09-26, 08:32:04,VALID,919.714,VALID,0,VALID,76.4095,VALID,417.516,VALID,22.9185,VALID,89,VALID,1.0707,
2014-09-26, 08:33:04,VALID,919.719,VALID,0,VALID,74.8391,VALID,426.004,VALID,22.9202,VALID,104,VALID,0.249609,
2014-09-26, 08:34:04,VALID,919.713,VALID,0,VALID,74.5951,VALID,424.285,VALID,23.0551,VALID,53,VALID,0,
2014-09-26, 08:35:04,VALID,919.724,VALID,0,VALID,70.4175,VALID,417.946,VALID,23.1527,VALID,108,VALID,0.371094,
2014-09-26, 08:36:04,VALID,919.766,VALID,0,VALID,73.7565,VALID,416.979,VALID,23.2893,VALID,164,VALID,0.192578,
2014-09-26, 08:37:04,VALID,919.739,VALID,0,VALID,74.4427,VALID,429.657,VALID,23.3869,VALID,153,VALID,0,
2014-09-26, 08:38:04,VALID,919.739,VALID,0,VALID,73.3068,VALID,427.938,VALID,23.4454,VALID,129,VALID,0,
2014-09-26, 08:39:04,VALID,919.75,VALID,0,VALID,72.3843,VALID,425.789,VALID,23.5821,VALID,160,VALID,0,
2014-09-26, 08:40:04,VALID,919.714,VALID,0,VALID,71.9346,VALID,437.715,VALID,23.6797,VALID,135,VALID,0.123828,
2014-09-26, 08:41:04,VALID,919.776,VALID,0,VALID,70.2345,VALID,425.145,VALID,23.7755,VALID,80,VALID,0.00429688,
2014-09-26, 08:42:04,VALID,919.756,VALID,0,VALID,71.3094,VALID,421.492,VALID,23.7169,VALID,141,VALID,1.14648,
2014-09-26, 08:43:04,VALID,919.736,VALID,0,VALID,71.3247,VALID,427.616,VALID,23.7773,VALID,101,VALID,2.23516,
2014-09-26, 08:44:04,VALID,919.764,VALID,0,VALID,71.3628,VALID,432.236,VALID,23.6388,VALID,104,VALID,0.273438,
2014-09-26, 08:45:04,VALID,919.733,VALID,0,VALID,68.4964,VALID,422.351,VALID,23.6211,VALID,184,VALID,1.37031,
2014-09-26, 08:46:04,VALID,919.744,VALID,0,VALID,72.5902,VALID,426.434,VALID,23.7364,VALID,58,VALID,0.785156,
2014-09-26, 08:47:04,VALID,919.743,VALID,0,VALID,71.5458,VALID,434.707,VALID,23.8749,VALID,75,VALID,0.0601562,
2014-09-26, 08:48:04,VALID,919.783,VALID,0,VALID,70.6691,VALID,438.145,VALID,23.8163,VALID,99,VALID,0.0761719,
2014-09-26, 08:49:04,VALID,919.774,VALID,0,VALID,69.6475,VALID,446.203,VALID,23.8358,VALID,85,VALID,0.853906,
2014-09-26, 08:50:04,VALID,919.794,VALID,0,VALID,71.7973,VALID,444.484,VALID,23.7968,VALID,97,VALID,0.703516,
2014-09-26, 08:51:04,VALID,919.772,VALID,0,VALID,72.3615,VALID,448.567,VALID,23.7773,VALID,105,VALID,0.071875,
2014-09-26, 08:52:04,VALID,919.77,VALID,0,VALID,73.2915,VALID,448.782,VALID,23.8358,VALID,125,VALID,0.419922,
2014-09-26, 08:53:04,VALID,919.758,VALID,0,VALID,71.1646,VALID,452.112,VALID,23.9316,VALID,123,VALID,0,
2014-09-26, 08:54:04,VALID,919.743,VALID,0,VALID,67.513,VALID,452.327,VALID,23.9902,VALID,152,VALID,0,
2014-09-26, 08:55:04,VALID,919.784,VALID,0,VALID,68.4049,VALID,452.542,VALID,24.0292,VALID,92,VALID,1.95586,
2014-09-26, 08:56:04,VALID,919.771,VALID,0,VALID,69.4951,VALID,441.476,VALID,23.8731,VALID,83,VALID,0.630078,
2014-09-26, 08:57:04,VALID,919.771,VALID,0,VALID,69.2054,VALID,452.327,VALID,23.8536,VALID,85,VALID,0.487891,
2014-09-26, 08:58:04,VALID,919.722,VALID,0,VALID,69.5865,VALID,466.617,VALID,23.9121,VALID,56,VALID,3.25703,
2014-09-26, 08:59:04,VALID,919.702,VALID,0,VALID,69.6323,VALID,482.733,VALID,23.8926,VALID,101,VALID,1.36523,
2014-09-26, 09:00:04,VALID,919.7,VALID,0,VALID,71.0579,VALID,514.106,VALID,23.8731,VALID,68,VALID,0.272266,
2014-09-26, 09:01:04,VALID,919.687,VALID,0,VALID,70.1431,VALID,494.337,VALID,23.8731,VALID,143,VALID,2.04531,
2014-09-26, 09:02:04,VALID,919.703,VALID,0,VALID,67.9628,VALID,482.303,VALID,23.9316,VALID,91,VALID,3.12422,
2014-09-26, 09:03:04,VALID,919.755,VALID,0,VALID,68.687,VALID,482.303,VALID,23.9103,VALID,112,VALID,2.77578,
2014-09-26, 09:04:04,VALID,919.722,VALID,0,VALID,69.9372,VALID,468.121,VALID,23.9493,VALID,56,VALID,1.93047,
2014-09-26, 09:05:04,VALID,919.727,VALID,0,VALID,66.5295,VALID,487.89,VALID,23.9707,VALID,111,VALID,3.20977,
2014-09-26, 09:06:04,VALID,919.748,VALID,0,VALID,68.1228,VALID,492.618,VALID,24.0097,VALID,79,VALID,0.182812,
2014-09-26, 09:07:04,VALID,919.761,VALID,0,VALID,68.4659,VALID,487.138,VALID,24.0878,VALID,81,VALID,2.50039,
2014-09-26, 09:08:04,VALID,919.748,VALID,0,VALID,68.5726,VALID,467.047,VALID,24.1269,VALID,97,VALID,0.283594,
2014-09-26, 09:09:04,VALID,919.778,VALID,0,VALID,67.2843,VALID,478.221,VALID,24.1073,VALID,95,VALID,1.16094,
2014-09-26, 09:10:04,VALID,919.749,VALID,0,VALID,68.1838,VALID,475.642,VALID,24.1464,VALID,41,VALID,0.396094,
2014-09-26, 09:11:04,VALID,919.737,VALID,0,VALID,68.8166,VALID,488.213,VALID,24.2635,VALID,53,VALID,2.50195,
2014-09-26, 09:12:04,VALID,919.739,VALID,0,VALID,68.039,VALID,480.584,VALID,24.244,VALID,105,VALID,2.13008,
2014-09-26, 09:13:04,VALID,919.746,VALID,0,VALID,67.6273,VALID,278.595,VALID,24.2226,VALID,174,VALID,1.82734,
2014-09-26, 09:14:04,VALID,919.783,VALID,0,VALID,67.0937,VALID,517.544,VALID,24.1464,VALID,99,VALID,2.35,
2014-09-26, 09:15:04,VALID,919.749,VALID,0,VALID,68.161,VALID,520.23,VALID,24.1464,VALID,106,VALID,0.844141,
2014-09-26, 09:16:04,VALID,919.712,VALID,0,VALID,68.7403,VALID,536.669,VALID,24.125,VALID,45,VALID,1.63984,
2014-09-26, 09:17:04,VALID,919.728,VALID,0,VALID,68.0085,VALID,535.164,VALID,24.1641,VALID,70,VALID,2.54922,
2014-09-26, 09:18:04,VALID,919.744,VALID,0,VALID,69.5865,VALID,528.61,VALID,24.2049,VALID,95,VALID,0.726953,
2014-09-26, 09:19:04,VALID,919.762,VALID,0,VALID,69.5103,VALID,523.346,VALID,24.3007,VALID,121,VALID,0.00585938,
2014-09-26, 09:20:04,VALID,919.683,VALID,0,VALID,67.4672,VALID,537.421,VALID,24.3611,VALID,71,VALID,2.15703,
2014-09-26, 09:21:04,VALID,919.71,VALID,0,VALID,67.4672,VALID,517.329,VALID,24.4002,VALID,46,VALID,2.80352,
2014-09-26, 09:22:04,VALID,919.688,VALID,0,VALID,64.6923,VALID,599.737,VALID,24.363,VALID,56,VALID,4.475,
2014-09-26, 09:23:04,VALID,919.713,VALID,0,VALID,67.513,VALID,574.918,VALID,24.283,VALID,61,VALID,1.8043,
2014-09-26, 09:24:04,VALID,919.725,VALID,0,VALID,69.3883,VALID,574.273,VALID,24.3221,VALID,49,VALID,2.3582,
2014-09-26, 09:25:04,VALID,919.718,VALID,0,VALID,68.5574,VALID,550.206,VALID,24.3026,VALID,67,VALID,2.43477,
2014-09-26, 09:26:04,VALID,919.727,VALID,0,VALID,69.0605,VALID,559.231,VALID,24.3007,VALID,93,VALID,0.478125,
2014-09-26, 09:27:04,VALID,919.703,VALID,0,VALID,67.6273,VALID,568.041,VALID,24.4569,VALID,53,VALID,1.28633,
2014-09-26, 09:28:04,VALID,919.721,VALID,0,VALID,66.7278,VALID,574.38,VALID,24.5545,VALID,106,VALID,0.0289063,
2014-09-26, 09:29:04,VALID,919.706,VALID,0,VALID,65.8739,VALID,611.877,VALID,24.5935,VALID,64,VALID,1.1957,
2014-09-26, 09:30:04,VALID,919.669,VALID,0,VALID,67.4977,VALID,603.604,VALID,24.6131,VALID,74,VALID,2.32773,
2014-09-26, 09:31:04,VALID,919.684,VALID,0,VALID,65.4928,VALID,632.506,VALID,24.5155,VALID,54,VALID,2.52109,
2014-09-26, 09:32:04,VALID,919.669,VALID,0,VALID,68.1228,VALID,596.621,VALID,24.4569,VALID,65,VALID,2.32227,
2014-09-26, 09:33:04,VALID,919.682,VALID,0,VALID,64.3264,VALID,609.299,VALID,24.3769,VALID,69,VALID,3.21563,
2014-09-26, 09:34:04,VALID,919.607,VALID,0,VALID,65.8511,VALID,583.191,VALID,24.3965,VALID,50,VALID,2.35156,
2014-09-26, 09:35:04,VALID,919.626,VALID,0,VALID,69.7924,VALID,548.057,VALID,24.5155,VALID,35,VALID,1.32422,
2014-09-26, 09:36:04,VALID,919.698,VALID,0,VALID,69.0758,VALID,304.273,VALID,24.6131,VALID,76,VALID,2.41719,
2014-09-26, 09:37:04,VALID,919.659,VALID,0,VALID,69.335,VALID,356.382,VALID,24.654,VALID,52,VALID,2.40703,
2014-09-26, 09:38:04,VALID,919.642,VALID,0,VALID,64.7076,VALID,626.812,VALID,24.6345,VALID,70,VALID,3.7668,
2014-09-26, 09:39:04,VALID,919.698,VALID,0,VALID,64.1129,VALID,615.53,VALID,24.574,VALID,103,VALID,2.89219,
2014-09-26, 09:40:04,VALID,919.689,VALID,0,VALID,64.1282,VALID,344.779,VALID,24.535,VALID,112,VALID,3.15156,
2014-09-26, 09:41:04,VALID,919.653,VALID,0,VALID,65.1345,VALID,326.191,VALID,24.3788,VALID,185,VALID,0.992969,
2014-09-26, 09:42:04,VALID,919.696,VALID,0,VALID,64.6237,VALID,618.109,VALID,24.3593,VALID,52,VALID,2.83594,
2014-09-26, 09:43:04,VALID,919.724,VALID,0,VALID,66.339,VALID,303.091,VALID,24.4392,VALID,80,VALID,2.02734,
2014-09-26, 09:44:04,VALID,919.712,VALID,0,VALID,66.621,VALID,292.24,VALID,24.4959,VALID,65,VALID,1.18281,
2014-09-26, 09:45:04,VALID,919.718,VALID,0,VALID,66.8726,VALID,633.043,VALID,24.5759,VALID,89,VALID,1.61953,
2014-09-26, 09:46:04,VALID,919.719,VALID,0,VALID,66.3542,VALID,483.163,VALID,24.4959,VALID,71,VALID,2.27969,
2014-09-26, 09:47:04,VALID,919.722,VALID,0,VALID,65.3251,VALID,635.3,VALID,24.4569,VALID,51,VALID,2.46875,
2014-09-26, 09:48:04,VALID,919.752,VALID,0,VALID,64.6618,VALID,642.176,VALID,24.4764,VALID,103,VALID,2.19531,
2014-09-26, 09:49:04,VALID,919.709,VALID,0,VALID,67.1089,VALID,629.39,VALID,24.535,VALID,56,VALID,1.66172,
2014-09-26, 09:50:04,VALID,919.748,VALID,0,VALID,66.8955,VALID,627.241,VALID,24.7693,VALID,49,VALID,0.175781,
2014-09-26, 09:51:04,VALID,919.779,VALID,0,VALID,66.4533,VALID,631.647,VALID,24.8278,VALID,56,VALID,1.24219,
2014-09-26, 09:52:04,VALID,919.783,VALID,0,VALID,64.7762,VALID,667.962,VALID,24.9255,VALID,73,VALID,0.359375,
2014-09-26, 09:53:04,VALID,919.711,VALID,0,VALID,65.6147,VALID,692.566,VALID,25.1012,VALID,27,VALID,2.14219,
2014-09-26, 09:54:04,VALID,919.738,VALID,0,VALID,65.0659,VALID,640.349,VALID,25.1207,VALID,118,VALID,0.901563,
2014-09-26, 09:55:04,VALID,919.74,VALID,0,VALID,66.1103,VALID,670.863,VALID,25.0817,VALID,92,VALID,2.48633,
2014-09-26, 09:56:04,VALID,919.712,VALID,0,VALID,62.6645,VALID,710.616,VALID,24.8864,VALID,86,VALID,1.47461,
2014-09-26, 09:57:04,VALID,919.772,VALID,0,VALID,64.1282,VALID,378.623,VALID,24.9255,VALID,102,VALID,2.50273,
2014-09-26, 09:58:04,VALID,919.714,VALID,0,VALID,64.0519,VALID,551.925,VALID,24.8669,VALID,104,VALID,0.969531,
2014-09-26, 09:59:04,VALID,919.784,VALID,0,VALID,67.3453,VALID,515.073,VALID,24.7693,VALID,105,VALID,2.64336,
2014-09-26, 10:00:04,VALID,919.723,VALID,0,VALID,63.1829,VALID,677.631,VALID,24.6716,VALID,125,VALID,3.10742,
2014-09-26, 10:01:04,VALID,919.675,VALID,0,VALID,66.6668,VALID,708.789,VALID,24.6131,VALID,118,VALID,3.03359,
2014-09-26, 10:02:04,VALID,919.696,VALID,0,VALID,65.0125,VALID,670.54,VALID,24.7107,VALID,83,VALID,1.13789,
2014-09-26, 10:03:04,VALID,919.686,VALID,0,VALID,66.4762,VALID,673.441,VALID,24.8083,VALID,122,VALID,2.31719,
2014-09-26, 10:04:04,VALID,919.715,VALID,0,VALID,64.3645,VALID,318.993,VALID,24.8669,VALID,113,VALID,3.04258,
2014-09-26, 10:05:04,VALID,919.712,VALID,0,VALID,65.9959,VALID,648.407,VALID,24.6912,VALID,89,VALID,2.56602,
2014-09-26, 10:06:04,VALID,919.766,VALID,0,VALID,63.9833,VALID,613.274,VALID,24.6716,VALID,89,VALID,1.80039,
2014-09-26, 10:07:04,VALID,919.641,VALID,0,VALID,64.5093,VALID,647.548,VALID,24.6502,VALID,52,VALID,3.09805,
2014-09-26, 10:08:04,VALID,919.678,VALID,0,VALID,67.6578,VALID,601.67,VALID,24.7869,VALID,77,VALID,1.97227,
2014-09-26, 10:09:04,VALID,919.742,VALID,0,VALID,67.0403,VALID,291.488,VALID,24.8083,VALID,137,VALID,1.30586,
2014-09-26, 10:10:04,VALID,919.752,VALID,0,VALID,61.2541,VALID,690.417,VALID,24.8278,VALID,87,VALID,2.23438,
2014-09-26, 10:11:04,VALID,919.729,VALID,0,VALID,64.0748,VALID,682.896,VALID,24.8474,VALID,116,VALID,1.86133,
2014-09-26, 10:12:04,VALID,919.721,VALID,0,VALID,62.634,VALID,689.665,VALID,24.7869,VALID,126,VALID,3.93047,
2014-09-26, 10:13:04,VALID,919.723,VALID,0,VALID,64.0977,VALID,593.505,VALID,24.7674,VALID,142,VALID,1.78828,
2014-09-26, 10:14:04,VALID,919.682,VALID,0,VALID,63.0533,VALID,325.869,VALID,24.6893,VALID,148,VALID,2.86992,
2014-09-26, 10:15:04,VALID,919.651,VALID,0,VALID,65.5233,VALID,561.273,VALID,24.7283,VALID,103,VALID,0.728516,
2014-09-26, 10:16:04,VALID,919.672,VALID,0,VALID,66.4076,VALID,516.47,VALID,24.8845,VALID,50,VALID,1.475,
2014-09-26, 10:17:04,VALID,919.648,VALID,0,VALID,62.9465,VALID,506.478,VALID,24.9236,VALID,70,VALID,2.15547,
2014-09-26, 10:18:04,VALID,919.623,VALID,0,VALID,63.0761,VALID,306.637,VALID,24.9645,VALID,46,VALID,0.262891,
2014-09-26, 10:19:04,VALID,919.675,VALID,0,VALID,66.034,VALID,622.944,VALID,25.0426,VALID,69,VALID,1.61797,
2014-09-26, 10:20:04,VALID,919.584,VALID,0,VALID,61.7878,VALID,608.009,VALID,24.9821,VALID,45,VALID,4.27656,
2014-09-26, 10:21:04,VALID,919.662,VALID,0,VALID,64.1358,VALID,701.591,VALID,24.8845,VALID,51,VALID,1.40391,
2014-09-26, 10:22:04,VALID,919.618,VALID,0,VALID,62.4815,VALID,718.459,VALID,24.9645,VALID,22,VALID,1.39648,
2014-09-26, 10:23:04,VALID,919.668,VALID,0,VALID,63.8309,VALID,718.352,VALID,25.0798,VALID,99,VALID,1.99453,
2014-09-26, 10:24:04,VALID,919.598,VALID,0,VALID,61.2999,VALID,711.475,VALID,25.1579,VALID,155,VALID,1.26289,
2014-09-26, 10:25:04,VALID,919.625,VALID,0,VALID,62.108,VALID,709.541,VALID,25.1383,VALID,145,VALID,2.8082,
2014-09-26, 10:26:04,VALID,919.612,VALID,0,VALID,62.6645,VALID,695.144,VALID,25.1988,VALID,151,VALID,2.33711,
2014-09-26, 10:27:04,VALID,919.586,VALID,0,VALID,64.0519,VALID,640.242,VALID,25.2164,VALID,62,VALID,1.78906,
2014-09-26, 10:28:04,VALID,919.531,VALID,0,VALID,63.2057,VALID,631.861,VALID,25.2769,VALID,133,VALID,2.23945,
2014-09-26, 10:29:04,VALID,919.574,VALID,0,VALID,65.0201,VALID,562.454,VALID,25.2164,VALID,128,VALID,2.84531,
2014-09-26, 10:30:04,VALID,919.562,VALID,0,VALID,64.0367,VALID,519.585,VALID,25.0407,VALID,110,VALID,3.29492,
2014-09-26, 10:31:04,VALID,919.554,VALID,0,VALID,61.4752,VALID,585.877,VALID,24.865,VALID,103,VALID,3.21328,